Charlotte, NC

9:17 AM EDT on September 26, 2017 (GMT -0400)
Charlotte-Douglas International

Weather History for KCLT - March, 2012

Change the Weather History Date:

Saturday, March 3, 2012

  Actual Average Record
Temperature  
Mean Temperature 57 °F 48 °F  
Max Temperature 63 °F 59 °F 84 °F (1976)
Min Temperature 51 °F 36 °F 4 °F (1980)
Degree Days  
Heating Degree Days 8 17  
Month to date heating degree days 18 53  
Since 1 July heating degree days 2280 2752  
Cooling Degree Days 0 0  
Month to date cooling degree days 3 0  
Year to date cooling degree days 3 0  
Growing Degree Days 8 (Base 50)    
Moisture  
Dew Point 49 °F    
Average Humidity 65    
Maximum Humidity 100    
Minimum Humidity 29    
Precipitation  
Precipitation 1.48 in 0.12 in 3.04 in (1952)
Month to date precipitation 1.69 0.39  
Year to date precipitation 5.27 7.12  
Snow  
Snow 0.00 in 0.00 in 1.50 in (1960)
Month to date snowfall 0.0 0.1  
Since 1 July snowfall T 3.8  
Snow Depth 0.00 in    
Sea Level Pressure  
Sea Level Pressure 29.69 in    
Wind  
Wind Speed 6 mph (West)    
Max Wind Speed 25 mph    
Max Gust Speed 36 mph    
Visibility 8 miles    
Events Rain , Thunderstorm    
T = Trace of Precipitation, MM = Missing Value Source: NWS Daily Summary

Daily Weather History Graph

Daily Weather History Graph

Search for Another Location

Airport or City:

Trip Planner

Search our weather history database for the weather conditions in past years. The results will help you decide how hot, cold, wet, or windy it might be!

Date:

Astronomy

Mar. 03, 2012 Rise Set
Actual Time 6:50 AM EST 6:21 PM EST
Civil Twilight 6:24 AM EST 6:46 PM EST
Nautical Twilight 5:55 AM EST 7:16 PM EST
Astronomical Twilight 5:25 AM EST 7:45 PM EST
Moon 1:38 PM EST (3/3) 3:16 AM EST (3/3)
Length of Visible Light 12h 22m
Length of Day
11h 31m
Waxing Gibbous, 75% of the Moon is Illuminated
Mar 3
Waxing Gibbous
Mar 8
Full
Mar 14
Last Quarter
Mar 22
New
Mar 30
First Quarter

Hourly Weather History & Observations

Time (EST) Temp. Dew Point Humidity Pressure Visibility Wind Dir Wind Speed Gust Speed Precip Events Conditions
12:52 AM 57.0 °F 54.0 °F 89% 29.67 in 5.0 mi SW 13.8 mph - 0.01 in Rain Rain
12:59 AM 57.2 °F 55.4 °F 94% 29.67 in 7.0 mi SSW 8.1 mph - 0.01 in Rain , Thunderstorm Thunderstorms and Rain
1:05 AM 60.8 °F 57.2 °F 88% 29.68 in 3.0 mi South 13.8 mph 25.3 mph 0.02 in Rain , Thunderstorm Thunderstorms and Rain
1:12 AM 62.6 °F 59.0 °F 88% 29.67 in 5.0 mi SSW 19.6 mph 31.1 mph 0.08 in Rain , Thunderstorm Thunderstorms and Rain
1:30 AM 62.6 °F 57.2 °F 82% 29.67 in 10.0 mi SW 11.5 mph - 0.09 in   Overcast
1:52 AM 62.1 °F 59.0 °F 90% 29.65 in 10.0 mi West 3.5 mph - 0.09 in Rain Light Rain
2:12 AM 60.8 °F 57.2 °F 88% 29.61 in 8.0 mi NNE 6.9 mph - 0.01 in Rain , Thunderstorm Light Thunderstorms and Rain
2:21 AM 55.4 °F 53.6 °F 94% 29.66 in 0.8 mi NW 15.0 mph 35.7 mph 0.11 in Rain , Thunderstorm Heavy Thunderstorms and Rain
2:25 AM 55.4 °F 53.6 °F 94% 29.65 in 2.0 mi NW 9.2 mph 35.7 mph 0.52 in Rain , Thunderstorm Heavy Thunderstorms and Rain
2:43 AM 55.4 °F 55.4 °F 100% 29.66 in 6.0 mi WNW 4.6 mph - 0.67 in Rain , Thunderstorm Light Thunderstorms and Rain
2:52 AM 55.9 °F 55.0 °F 97% 29.64 in 5.0 mi South 3.5 mph - 0.69 in Rain Heavy Rain
3:21 AM 59.0 °F 57.2 °F 94% 29.67 in 4.0 mi SW 10.4 mph - 0.20 in Rain , Thunderstorm Thunderstorms and Rain
3:50 AM 59.0 °F 57.2 °F 94% 29.64 in 6.0 mi WNW 10.4 mph - 0.24 in Rain Rain
3:52 AM 59.0 °F 57.0 °F 93% 29.63 in 6.0 mi WNW 9.2 mph - 0.24 in Rain Rain
4:52 AM 59.0 °F 57.0 °F 93% 29.64 in 4.0 mi SSW 4.6 mph - 0.13 in Rain Heavy Rain
5:09 AM 59.0 °F 57.2 °F 94% 29.65 in 5.0 mi SSW 6.9 mph - 0.08 in Rain , Thunderstorm Heavy Thunderstorms and Rain
5:52 AM 59.0 °F 57.2 °F 94% 29.67 in 5.0 mi SW 16.1 mph 24.2 mph N/A Rain , Thunderstorm Thunderstorms and Rain
6:32 AM 60.8 °F 55.4 °F 82% 29.65 in 10.0 mi WSW 8.1 mph - 0.04 in Rain Light Rain
6:52 AM 59.0 °F 57.0 °F 93% 29.65 in 10.0 mi SW 8.1 mph - 0.05 in Rain Light Rain
7:52 AM 60.1 °F 57.0 °F 90% 29.69 in 10.0 mi WSW 9.2 mph - 0.00 in   Overcast
8:16 AM 57.2 °F 55.4 °F 94% 29.72 in 10.0 mi NNW 10.4 mph 20.7 mph 0.00 in Rain Light Rain
8:24 AM 57.2 °F 53.6 °F 88% 29.72 in 10.0 mi NNW 10.4 mph - 0.00 in Rain Light Rain
8:52 AM 55.9 °F 52.0 °F 87% 29.73 in 10.0 mi NW 6.9 mph - 0.00 in   Overcast
9:17 AM 55.4 °F 51.8 °F 88% 29.67 in 10.0 mi SE 10.4 mph - N/A   Overcast
9:52 AM 55.9 °F 51.1 °F 84% 29.73 in 10.0 mi Variable 3.5 mph - N/A   Overcast
10:52 AM 55.9 °F 51.1 °F 84% 29.75 in 10.0 mi WNW 8.1 mph - N/A   Mostly Cloudy
11:52 AM 57.0 °F 48.0 °F 72% 29.74 in 10.0 mi NNW 6.9 mph - N/A   Overcast
12:52 PM 57.9 °F 45.0 °F 62% 29.71 in 10.0 mi NNW 9.2 mph - N/A   Overcast
1:52 PM 60.1 °F 42.1 °F 51% 29.72 in 10.0 mi Variable 5.8 mph - N/A   Mostly Cloudy
2:52 PM 61.0 °F 39.9 °F 46% 29.72 in 10.0 mi Calm Calm - N/A   Mostly Cloudy
3:52 PM 59.0 °F 37.9 °F 46% 29.72 in 10.0 mi NW 5.8 mph - N/A   Overcast
4:52 PM 59.0 °F 37.9 °F 46% 29.73 in 10.0 mi NW 3.5 mph - N/A   Overcast
5:52 PM 59.0 °F 39.0 °F 48% 29.73 in 10.0 mi Calm Calm - N/A   Overcast
6:52 PM 57.0 °F 39.0 °F 51% 29.73 in 10.0 mi NW 3.5 mph - N/A   Overcast
7:52 PM 55.0 °F 41.0 °F 59% 29.75 in 10.0 mi Calm Calm - N/A   Overcast
8:52 PM 54.0 °F 36.0 °F 51% 29.76 in 10.0 mi NW 5.8 mph - N/A   Overcast
9:52 PM 54.0 °F 28.0 °F 37% 29.77 in 10.0 mi NNW 5.8 mph - N/A   Overcast
10:52 PM 53.1 °F 23.0 °F 31% 29.76 in 10.0 mi NNW 5.8 mph - N/A   Overcast
11:52 PM 52.0 °F 21.9 °F 31% 29.77 in 10.0 mi NNW 3.5 mph - N/A   Overcast